This is the latest recevied weather packets stored in our database for station/object W3JGB. If no packets are shown the sender has not sent any weather packets the latest 10 day(s).
| Time | Temp. | Humidity | Pressure | Rain* | Wind** | Luminosity | Snow |
|---|---|---|---|---|---|---|---|
| 1777467131 | 11.67° C | 90% | 1013.2 hPa | 0 mm | - | 54 W/m² | - |
| 1777466828 | 11.11° C | 90% | 1013.4 hPa | 0 mm | - | 52 W/m² | - |
| 1777466526 | 11.11° C | 90% | 1013.4 hPa | 0 mm | - | 52 W/m² | - |
| 1777466222 | 11.11° C | 90% | 1013.5 hPa | 0 mm | - | 49 W/m² | - |
| 1777465918 | 11.11° C | 90% | 1013.8 hPa | 0 mm | - | 46 W/m² | - |
| 1777465615 | 11.11° C | 90% | 1013.6 hPa | 0 mm | - | 44 W/m² | - |
| 1777465310 | 11.11° C | 91% | 1013.7 hPa | 0 mm | - | 42 W/m² | - |
| 1777465004 | 11.11° C | 90% | 1014 hPa | 0 mm | - | 34 W/m² | - |
| 1777464699 | 11.11° C | 90% | 1013.7 hPa | 0 mm | - | 34 W/m² | - |
| 1777464396 | 11.11° C | 90% | 1014 hPa | 0 mm | - | 35 W/m² | - |
| 1777464092 | 11.11° C | 89% | 1013.7 hPa | 0 mm | - | 28 W/m² | - |
| 1777463786 | 10.56° C | 90% | 1013.5 hPa | 0 mm | - | 32 W/m² | - |
| 1777463481 | 10.56° C | 90% | 1013.6 hPa | 0 mm | - | 29 W/m² | - |
| 1777463178 | 10.56° C | 90% | 1013.9 hPa | 0 mm | - | 29 W/m² | - |
| 1777462874 | 10.56° C | 91% | 1013.9 hPa | 0 mm | - | 25 W/m² | - |
| 1777462570 | 10.56° C | 91% | 1014.1 hPa | 0 mm | - | 24 W/m² | - |
| 1777462266 | 10.56° C | 92% | 1014.2 hPa | 0 mm | - | 20 W/m² | - |
| 1777461961 | 10.56° C | 91% | 1014.1 hPa | 0 mm | - | 17 W/m² | - |
| 1777461659 | 10.56° C | 92% | 1014.1 hPa | 0 mm | - | 16 W/m² | - |
| 1777461359 | 10.56° C | 93% | 1014.1 hPa | 0 mm | - | 15 W/m² | - |
| 1777461056 | 10.56° C | 94% | 1014 hPa | 0 mm | - | 16 W/m² | - |
| 1777460751 | 10° C | 95% | 1014 hPa | 0 mm | - | 16 W/m² | - |
| 1777460447 | 10° C | 95% | 1014 hPa | 0 mm | - | 12 W/m² | - |
| 1777460142 | 10° C | 96% | 1014 hPa | 0 mm | - | 12 W/m² | - |
| 1777459840 | 10° C | 96% | 1014 hPa | 0 mm | - | 10 W/m² | - |
* Rain latest hour (hover to see other rain measurements)
** Current wind speed in m/s (hover to see current wind gust speed)